Wind_Speed
18 18 18 19 19 20 20 20 19 19 18 18 18 18 19 18 18 17 17 16 16 16 16 16 15 15 15 15 15 14 14 14 13 12 11 11 10 11 11 11 12 12 12
19 19 19 20 20 20 20 20 20 19 20 19 19 19 19 19 19 19 18 17 17 16 16 16 16 16 15 15 15 14 14 14 13 12 12 12 12 12 12 13 13 12 12
20 20 20 20 20 20 20 20 20 20 21 21 21 21 21 20 20 19 18 18 18 17 17 16 16 16 15 15 15 14 14 14 14 13 13 13 12 13 13 13 13 13 13
22 21 21 21 21 21 20 20 21 21 21 21 22 22 22 21 21 20 20 19 18 17 18 17 17 17 16 16 16 15 15 15 14 14 14 14 14 14 14 13 13 14 13
23 23 23 23 23 22 21 21 21 22 22 22 22 21 21 21 22 21 19 19 19 18 18 18 18 18 18 17 17 17 17 17 16 16 16 15 15 15 14 14 14 14 14
24 24 25 24 24 23 23 23 23 23 23 23 23 23 23 22 22 22 21 20 20 20 19 19 19 19 19 18 18 18 18 18 18 18 17 17 17 16 16 16 15 15 15
26 26 26 25 25 24 25 25 24 24 24 24 24 24 24 23 23 23 22 21 21 21 21 21 20 19 19 19 19 19 18 18 19 19 19 19 18 18 17 17 17 16 16
27 27 27 26 26 25 25 26 26 25 24 24 24 24 24 24 24 24 23 22 22 22 21 20 20 20 20 20 20 19 19 19 19 19 20 19 19 18 18 18 18 17 17
28 28 28 28 28 27 26 26 27 26 25 25 25 25 25 25 24 25 25 24 22 22 22 21 21 21 21 21 20 20 20 20 20 20 20 20 20 20 20 19 19 19 18
28 28 28 29 28 28 28 27 27 27 27 26 26 26 25 25 25 25 24 24 23 22 22 22 22 22 22 22 22 21 21 21 21 21 21 22 22 22 22 21 21 20 20
29 29 29 29 29 29 28 28 28 27 27 27 27 27 26 26 26 26 25 25 24 24 24 23 23 22 22 23 24 23 23 24 24 23 23 23 23 23 23 23 23 23 22
29 30 30 30 30 30 29 29 28 28 27 27 27 27 27 27 27 26 26 26 26 25 25 24 24 25 24 24 24 25 25 25 25 25 24 24 24 24 24 24 24 24 24
30 29 30 30 30 30 30 29 29 29 28 27 27 27 27 27 28 27 27 27 26 26 26 26 26 26 26 26 25 25 26 26 26 26 26 25 25 25 25 25 25 25 25
30 30 30 30 30 30 30 30 30 29 29 28 28 27 27 27 28 28 27 27 27 27 27 27 26 27 28 27 27 27 27 27 28 27 27 27 28 27 27 27 27 26 27
30 29 30 30 30 29 29 29 29 28 28 27 27 27 27 26 27 27 27 27 27 27 27 27 27 28 28 28 29 29 29 29 28 28 28 28 29 28 28 28 28 28 27
29 28 29 29 29 29 28 28 28 28 27 27 27 27 28 28 28 28 28 28 28 28 28 28 28 29 29 29 29 29 29 29 29 29 29 29 29 29 29 29 28 28 29
28 28 28 28 28 28 28 28 28 28 28 28 28 28 28 28 28 29 29 29 29 30 29 29 30 30 30 30 30 30 30 30 30 30 30 30 29 30 30 30 30 29 30
29 28 28 28 28 28 28 29 29 29 29 29 28 28 29 29 29 30 30 30 30 31 31 31 30 30 30 30 31 31 31 30 31 30 30 31 30 30 31 30 30 30 31
29 29 28 28 28 28 29 29 30 29 29 29 29 29 29 29 30 31 31 31 30 31 31 31 31 31 31 31 30 31 31 31 31 31 32 32 32 31 32 32 31 30 30
28 28 28 28 28 28 29 30 30 29 29 29 29 29 29 30 31 31 32 32 32 32 32 32 32 32 32 31 31 31 32 32 32 32 32 33 33 32 32 32 31 31 30
29 29 29 29 29 29 29 29 29 30 30 29 29 29 29 30 30 31 31 31 32 32 32 32 33 33 33 32 32 32 32 33 33 33 33 33 34 33 33 32 31 31 31
29 29 29 29 29 29 29 29 29 29 29 29 29 30 30 31 31 31 31 31 31 31 32 32 32 33 33 33 33 33 33 33 33 34 34 34 34 33 32 31 31 31 31
27 28 28 28 28 28 29 30 30 30 30 30 30 30 31 31 31 32 32 31 32 32 32 32 33 32 32 33 33 32 32 33 33 34 34 34 34 33 32 32 32 31 31
25 26 26 27 27 27 28 28 29 30 31 31 31 31 32 32 32 33 33 33 33 33 33 33 33 32 32 33 33 33 33 33 33 33 33 32 31 31 31 31 31 31 30
25 25 25 26 26 27 27 27 28 29 30 31 32 32 33 32 32 33 33 33 33 34 34 33 33 32 32 32 33 32 32 33 33 32 32 31 31 31 31 31 30 30 29
25 25 26 26 26 27 27 28 28 29 30 31 31 32 32 32 32 32 32 31 32 34 33 33 32 32 32 32 32 31 31 31 31 31 31 31 31 30 30 30 29 29 29
Wind_Direction
275 275 274 272 272 274 277 276 275 274 276 277 274 273 274 275 273 272 271 269 270 265 264 264 262 258 255 258 261 262 263 265 265 264 270 273 277 280 287 290 292 291 292
273 275 277 276 274 275 277 277 274 273 273 274 273 273 275 274 272 270 269 267 267 264 263 263 262 257 257 257 259 261 262 262 264 265 268 271 277 280 281 285 289 292 291
273 274 276 277 276 276 276 276 276 276 273 272 273 273 275 275 273 270 270 269 267 264 262 262 261 261 260 259 259 260 262 262 263 266 267 268 272 277 280 282 286 289 290
273 273 275 276 276 275 275 273 273 275 274 273 274 273 271 270 269 269 268 267 267 265 262 258 258 259 258 259 259 259 261 261 263 265 266 268 271 275 281 283 285 286 286
273 273 275 274 275 274 275 274 273 273 274 273 274 273 270 267 265 265 265 265 266 264 261 259 257 256 256 257 259 258 258 259 262 265 267 270 273 275 278 281 285 286 285
272 274 274 273 274 274 275 274 273 272 272 273 273 272 270 268 265 262 261 263 265 264 261 260 259 257 256 257 258 260 260 261 263 265 268 271 272 273 275 278 282 284 285
272 272 273 272 272 273 274 273 272 272 270 271 272 271 271 269 267 264 261 261 263 263 261 259 258 258 258 258 258 260 261 262 263 265 267 270 270 271 273 276 277 279 281
272 272 272 271 270 271 273 273 271 271 271 271 270 269 269 268 266 264 261 261 262 262 262 261 257 256 258 260 261 263 262 262 263 265 265 265 266 269 271 274 277 278 280
271 271 271 271 269 269 271 272 271 270 270 269 268 269 267 267 267 263 259 258 259 260 260 261 260 258 258 260 262 264 265 266 265 264 265 265 267 269 271 273 276 278 279
271 270 269 269 268 268 269 270 270 270 269 268 267 266 265 265 265 263 259 257 257 257 258 260 261 260 259 261 262 264 264 265 266 267 267 266 266 268 270 271 273 276 277
269 269 269 269 268 269 269 270 270 269 268 265 264 264 263 262 262 261 261 258 256 256 256 259 260 260 259 260 262 262 263 265 266 268 270 269 269 268 267 268 269 272 275
272 271 269 268 269 269 268 269 270 271 271 268 263 263 263 262 261 260 260 258 256 255 256 258 259 259 260 260 262 264 265 266 266 266 269 270 269 268 268 268 269 271 273
273 271 270 269 269 268 267 268 269 269 269 269 266 263 262 262 261 260 258 256 255 255 257 258 260 260 260 262 263 265 267 266 265 265 266 268 269 268 268 268 268 271 274
271 270 270 270 269 268 267 268 269 270 269 269 267 265 263 262 261 258 256 256 256 257 259 260 262 262 263 264 265 266 268 268 267 266 266 267 268 269 268 268 269 271 273
269 269 270 268 268 269 269 269 269 269 270 270 268 266 265 263 261 258 257 257 257 259 260 260 262 264 266 266 266 267 268 269 268 267 266 267 267 269 269 269 270 272 272
272 271 270 268 268 269 269 269 268 269 268 267 266 266 265 263 260 259 258 258 260 261 262 263 263 265 265 265 266 267 267 267 267 268 268 268 267 267 268 268 268 270 271
272 271 271 271 270 269 269 269 270 269 268 266 265 264 262 261 261 261 261 261 262 263 264 264 264 265 265 265 265 265 266 266 267 267 268 268 269 268 268 268 268 269 271
270 270 272 273 271 270 269 268 268 267 267 267 266 265 263 263 263 263 263 263 263 263 264 265 265 265 266 266 265 265 265 266 266 266 267 268 269 269 269 271 271 270 272
270 270 271 272 271 270 270 269 268 268 268 268 267 265 263 263 264 264 265 264 263 263 264 264 264 264 264 264 264 265 266 266 267 267 268 268 269 270 270 271 272 272 273
272 271 271 272 272 271 271 270 269 267 267 267 267 266 264 263 263 264 265 265 264 264 264 264 264 263 264 265 265 265 265 266 267 267 268 269 270 270 271 271 270 270 272
273 272 271 272 273 272 272 270 269 267 267 266 267 266 266 266 266 265 265 264 264 265 264 263 262 263 264 266 266 266 266 266 267 268 269 270 270 271 271 271 270 271 273
273 272 272 273 273 273 273 271 269 269 268 268 268 267 267 268 268 267 266 265 265 265 264 263 262 262 264 265 265 265 266 267 268 268 268 269 270 270 270 269 269 271 271
274 274 273 273 273 273 273 273 272 270 269 269 269 268 268 268 268 268 267 267 266 265 263 263 261 261 262 263 264 264 265 267 267 268 269 270 270 270 270 269 269 270 270
276 276 275 274 274 274 274 274 272 271 270 269 268 268 269 269 268 267 267 267 266 265 264 263 262 260 261 263 264 265 266 267 267 267 268 269 269 269 269 269 269 268 268
276 276 275 274 273 274 274 274 274 273 271 270 269 269 269 269 268 267 266 266 266 266 265 264 262 260 261 262 263 264 266 267 266 266 266 267 268 268 268 268 267 267 267
274 274 276 276 275 275 275 276 276 275 274 273 272 271 270 269 268 269 268 266 265 264 264 263 261 260 260 261 262 263 264 265 265 265 265 265 266 267 267 267 267 266 266
Height
5828 5828 5828 5828 5828 5828 5828 5828 5828 5828 5828 5828 5828 5828 5828 5828 5828 5828 5829 5829 5830 5830 5831 5831 5832 5833 5833 5834 5835 5836 5837 5837 5838 5838 5838 5838 5838 5839 5839 5839 5838 5838 5837
5823 5824 5823 5823 5823 5823 5823 5823 5823 5823 5823 5823 5823 5823 5823 5823 5823 5824 5824 5825 5826 5826 5827 5827 5828 5829 5829 5830 5831 5832 5833 5833 5834 5835 5835 5835 5836 5836 5836 5836 5835 5835 5834
5819 5819 5819 5818 5818 5818 5818 5818 5818 5818 5818 5817 5818 5818 5818 5818 5818 5819 5819 5820 5821 5821 5822 5823 5824 5824 5825 5826 5827 5828 5829 5830 5830 5831 5832 5832 5832 5832 5832 5832 5832 5831 5831
5813 5813 5813 5813 5813 5812 5812 5812 5812 5812 5812 5812 5812 5812 5812 5813 5813 5814 5814 5815 5816 5817 5817 5818 5819 5820 5821 5822 5823 5824 5825 5826 5826 5827 5828 5828 5829 5829 5829 5829 5828 5828 5827
5807 5807 5807 5807 5807 5806 5806 5806 5806 5806 5806 5806 5806 5806 5806 5807 5807 5808 5809 5810 5811 5812 5812 5813 5814 5815 5816 5817 5818 5819 5820 5821 5822 5823 5824 5824 5824 5825 5825 5825 5825 5824 5824
5800 5800 5800 5800 5800 5800 5800 5800 5800 5800 5800 5800 5800 5800 5800 5801 5801 5802 5803 5804 5805 5806 5807 5808 5809 5810 5811 5812 5813 5814 5815 5816 5817 5818 5819 5819 5820 5820 5820 5820 5820 5820 5820
5793 5793 5793 5793 5793 5793 5793 5793 5793 5793 5793 5793 5793 5793 5794 5794 5795 5796 5797 5798 5799 5800 5802 5803 5804 5805 5806 5807 5808 5809 5810 5810 5812 5813 5813 5814 5815 5815 5816 5816 5816 5815 5815
5785 5785 5785 5785 5785 5785 5785 5785 5785 5785 5785 5786 5786 5786 5787 5787 5788 5789 5790 5791 5793 5794 5796 5797 5798 5799 5801 5802 5803 5804 5804 5805 5806 5807 5808 5808 5809 5810 5810 5811 5811 5811 5810
5777 5777 5777 5777 5777 5778 5778 5777 5777 5777 5777 5777 5778 5778 5779 5780 5781 5782 5783 5785 5786 5788 5789 5791 5792 5793 5795 5796 5797 5798 5799 5800 5800 5801 5802 5803 5804 5804 5805 5805 5806 5806 5805
5769 5768 5769 5769 5769 5770 5770 5770 5769 5769 5769 5769 5770 5770 5771 5772 5774 5775 5776 5778 5779 5781 5783 5784 5786 5787 5788 5789 5791 5792 5793 5794 5794 5795 5796 5797 5797 5798 5799 5799 5799 5800 5800
5760 5760 5760 5760 5761 5761 5761 5761 5761 5761 5761 5761 5762 5762 5763 5764 5766 5767 5769 5770 5772 5774 5776 5778 5779 5780 5782 5783 5784 5785 5786 5787 5787 5788 5789 5790 5790 5791 5792 5792 5792 5793 5793
5752 5751 5751 5752 5752 5752 5753 5753 5753 5752 5753 5753 5753 5754 5755 5756 5758 5760 5762 5763 5764 5767 5769 5770 5772 5773 5774 5776 5777 5777 5778 5779 5780 5781 5782 5783 5783 5784 5785 5785 5786 5786 5786
5743 5743 5743 5743 5743 5743 5744 5744 5744 5744 5744 5745 5745 5746 5747 5748 5750 5752 5754 5755 5757 5759 5761 5763 5764 5765 5766 5768 5769 5770 5770 5771 5773 5774 5775 5776 5776 5776 5777 5778 5778 5779 5779
5734 5734 5734 5734 5734 5735 5735 5735 5735 5735 5735 5736 5737 5738 5739 5740 5742 5743 5746 5748 5749 5751 5753 5755 5756 5757 5758 5759 5760 5761 5762 5763 5764 5765 5766 5767 5768 5768 5769 5769 5770 5770 5771
5725 5725 5725 5725 5725 5726 5726 5726 5727 5727 5727 5727 5728 5729 5731 5732 5734 5735 5737 5739 5741 5743 5744 5746 5748 5749 5750 5751 5752 5753 5754 5755 5756 5757 5757 5758 5759 5760 5760 5761 5761 5762 5762
5716 5716 5716 5716 5716 5717 5717 5718 5718 5718 5719 5719 5720 5721 5722 5724 5726 5727 5729 5731 5732 5734 5736 5737 5739 5740 5741 5742 5743 5744 5745 5746 5747 5748 5748 5749 5750 5750 5751 5751 5752 5752 5753
5708 5708 5708 5708 5708 5708 5708 5709 5709 5710 5710 5711 5711 5712 5714 5715 5717 5718 5720 5722 5723 5725 5726 5728 5729 5731 5732 5733 5734 5735 5736 5737 5737 5738 5739 5739 5740 5741 5741 5742 5742 5743 5743
5699 5699 5699 5699 5699 5699 5699 5700 5700 5701 5702 5702 5703 5704 5705 5706 5708 5709 5711 5712 5714 5715 5716 5718 5719 5721 5722 5723 5724 5725 5726 5727 5728 5728 5729 5730 5730 5731 5731 5732 5732 5732 5733
5690 5690 5690 5690 5690 5690 5691 5691 5691 5691 5692 5693 5694 5695 5696 5697 5698 5699 5700 5702 5704 5705 5707 5708 5710 5711 5712 5713 5714 5715 5716 5717 5718 5718 5719 5720 5720 5721 5721 5722 5722 5722 5722
5682 5682 5681 5681 5681 5681 5682 5682 5682 5682 5683 5684 5685 5685 5686 5687 5688 5689 5690 5692 5694 5695 5697 5698 5699 5701 5702 5703 5704 5705 5706 5707 5708 5709 5709 5710 5710 5710 5711 5711 5712 5712 5712
5673 5673 5673 5672 5672 5672 5672 5673 5673 5673 5673 5674 5675 5676 5677 5677 5678 5679 5680 5681 5683 5684 5686 5687 5688 5690 5691 5692 5694 5695 5696 5697 5698 5698 5699 5699 5700 5700 5701 5701 5701 5702 5702
5664 5664 5663 5663 5663 5663 5663 5663 5663 5664 5664 5664 5665 5666 5666 5667 5668 5669 5670 5671 5672 5674 5675 5676 5678 5679 5681 5682 5683 5684 5685 5686 5687 5688 5688 5689 5689 5690 5690 5690 5691 5692 5692
5655 5655 5655 5654 5654 5654 5654 5653 5654 5654 5654 5655 5655 5656 5656 5657 5658 5659 5660 5661 5662 5663 5664 5665 5667 5668 5670 5671 5672 5673 5674 5675 5676 5676 5677 5678 5679 5679 5680 5681 5681 5681 5682
5647 5646 5646 5645 5645 5645 5644 5644 5644 5644 5644 5644 5645 5645 5646 5647 5648 5649 5649 5650 5651 5652 5653 5654 5656 5657 5659 5660 5661 5662 5663 5664 5664 5665 5666 5667 5668 5669 5670 5670 5671 5671 5671
5639 5638 5637 5637 5637 5636 5636 5635 5635 5635 5634 5634 5634 5635 5635 5636 5637 5638 5639 5640 5640 5642 5642 5644 5645 5647 5648 5649 5651 5652 5653 5653 5654 5655 5655 5656 5657 5659 5659 5660 5660 5661 5661
5631 5630 5629 5629 5628 5628 5627 5626 5626 5626 5625 5625 5625 5625 5625 5625 5626 5627 5628 5629 5630 5631 5632 5633 5634 5636 5638 5639 5640 5641 5642 5643 5644 5644 5645 5646 5648 5649 5649 5650 5650 5651 5651